nws-alerts: Checking more than four warning/county codes can delay the loading of your pages. You should use a cron job to get the data.
EllijayWeather Historical Data
Daily Summary for February 10, 2019 Units:  English    Metric   Both
Daily Weekly Monthly Yearly
  High: Low: Average:
Temperature: 45.0 °F 35.0 °F 39.8 °F
Dew Point: 41.0 °F 16.0 °F 28.1 °F
Humidity: 97% 35% 67%
Wind Speed: 9mph 0mph 2.3mph
Wind Gust: 11mph - -
Wind- - SE
Pressure: 30.6 in 30.4 in -
Precipitation: 0.160 in    
 
 
Tabular Data for February 10, 2019
Time Temperature Dew Point Pressure Wind Wind Speed Wind Gust Humidity Rainfall Rate (Hourly)
00:04 45.0 °F 21.0 °F 30.6 in Calm   4 mph 38% 0.000 in
00:09 45.0 °F 20.0 °F 30.6 in SE 2 mph 4 mph 36% 0.000 in
00:14 45.0 °F 20.0 °F 30.6 in SE 4 mph 5 mph 36% 0.000 in
00:19 45.0 °F 19.0 °F 30.6 in SE 4 mph 5 mph 35% 0.000 in
00:24 45.0 °F 19.0 °F 30.6 in SE 4 mph 7 mph 35% 0.000 in
00:29 45.0 °F 20.0 °F 30.6 in Calm   4 mph 37% 0.000 in
00:34 44.0 °F 20.0 °F 30.6 in SE 4 mph 5 mph 37% 0.000 in
00:39 44.0 °F 19.0 °F 30.6 in SE 7 mph 7 mph 36% 0.000 in
00:44 44.0 °F 18.0 °F 30.6 in SE 7 mph 7 mph 35% 0.000 in
00:49 44.0 °F 19.0 °F 30.6 in ESE 4 mph 6 mph 36% 0.000 in
00:54 44.0 °F 19.0 °F 30.6 in SE 1 mph 6 mph 37% 0.000 in
00:59 44.0 °F 19.0 °F 30.6 in ESE 5 mph 6 mph 36% 0.000 in
01:04 44.0 °F 18.0 °F 30.6 in SE 5 mph 6 mph 36% 0.000 in
01:09 44.0 °F 19.0 °F 30.6 in SE 8 mph 8 mph 37% 0.000 in
01:14 44.0 °F 18.0 °F 30.6 in ESE 5 mph 5 mph 35% 0.000 in
01:19 44.0 °F 18.0 °F 30.6 in ESE 2 mph 6 mph 36% 0.000 in
01:24 43.0 °F 18.0 °F 30.6 in SE 4 mph 5 mph 36% 0.000 in
01:29 43.0 °F 18.0 °F 30.6 in SE 4 mph 7 mph 35% 0.000 in
01:34 43.0 °F 18.0 °F 30.6 in SE 6 mph 11 mph 35% 0.000 in
01:39 43.0 °F 18.0 °F 30.6 in SE 4 mph 5 mph 35% 0.000 in
01:44 43.0 °F 18.0 °F 30.6 in SE 5 mph 5 mph 35% 0.000 in
01:49 43.0 °F 18.0 °F 30.6 in ESE 2 mph 5 mph 35% 0.000 in
01:54 43.0 °F 17.0 °F 30.6 in SE 7 mph 8 mph 35% 0.000 in
01:59 43.0 °F 18.0 °F 30.6 in SSE 5 mph 8 mph 36% 0.000 in
02:04 43.0 °F 18.0 °F 30.6 in ESE 6 mph 11 mph 36% 0.000 in
02:09 43.0 °F 19.0 °F 30.6 in SE 6 mph 7 mph 37% 0.000 in
02:14 43.0 °F 17.0 °F 30.6 in ESE 5 mph 5 mph 35% 0.000 in
02:19 43.0 °F 17.0 °F 30.6 in ESE 7 mph 7 mph 35% 0.000 in
02:24 43.0 °F 17.0 °F 30.6 in ESE 4 mph 8 mph 35% 0.000 in
02:29 43.0 °F 17.0 °F 30.6 in ESE 6 mph 7 mph 35% 0.000 in
02:34 43.0 °F 18.0 °F 30.6 in East 4 mph 5 mph 36% 0.000 in
02:39 43.0 °F 18.0 °F 30.6 in SE 2 mph 6 mph 37% 0.000 in
02:44 43.0 °F 17.0 °F 30.6 in SE 7 mph 8 mph 35% 0.000 in
02:49 42.0 °F 17.0 °F 30.6 in SE 9 mph 9 mph 35% 0.000 in
02:54 42.0 °F 17.0 °F 30.6 in ESE 7 mph 8 mph 35% 0.000 in
02:59 42.0 °F 17.0 °F 30.6 in ESE 5 mph 7 mph 35% 0.000 in
03:04 42.0 °F 17.0 °F 30.6 in ESE 5 mph 6 mph 36% 0.000 in
03:09 42.0 °F 17.0 °F 30.6 in SE 5 mph 7 mph 35% 0.000 in
03:14 42.0 °F 17.0 °F 30.6 in SE 5 mph 7 mph 35% 0.000 in
03:19 42.0 °F 17.0 °F 30.6 in SE 7 mph 7 mph 36% 0.000 in
03:24 42.0 °F 17.0 °F 30.6 in SE 4 mph 9 mph 36% 0.000 in
03:29 42.0 °F 17.0 °F 30.6 in ESE 5 mph 7 mph 36% 0.000 in
03:34 42.0 °F 17.0 °F 30.6 in ESE 4 mph 6 mph 37% 0.000 in
03:39 42.0 °F 17.0 °F 30.6 in SE 8 mph 8 mph 37% 0.000 in
03:44 42.0 °F 16.0 °F 30.6 in ESE 9 mph 9 mph 35% 0.000 in
03:49 42.0 °F 17.0 °F 30.6 in South 3 mph 4 mph 36% 0.000 in
03:54 42.0 °F 17.0 °F 30.6 in SE 4 mph 9 mph 36% 0.000 in
03:59 42.0 °F 17.0 °F 30.6 in ESE 5 mph 6 mph 36% 0.000 in
04:04 42.0 °F 17.0 °F 30.6 in ESE 4 mph 6 mph 36% 0.000 in
04:09 42.0 °F 17.0 °F 30.6 in SE 7 mph 7 mph 36% 0.000 in
04:14 41.0 °F 17.0 °F 30.6 in East 1 mph 5 mph 37% 0.000 in
04:19 41.0 °F 18.0 °F 30.6 in SE 6 mph 7 mph 38% 0.000 in
04:24 41.0 °F 17.0 °F 30.6 in Calm   7 mph 38% 0.000 in
04:29 41.0 °F 17.0 °F 30.6 in ESE 6 mph 9 mph 37% 0.000 in
04:34 41.0 °F 17.0 °F 30.6 in SE 5 mph 6 mph 37% 0.000 in
04:39 41.0 °F 17.0 °F 30.6 in SE 5 mph 10 mph 38% 0.000 in
04:44 41.0 °F 17.0 °F 30.6 in ESE 7 mph 8 mph 37% 0.000 in
04:49 41.0 °F 17.0 °F 30.6 in ESE 5 mph 9 mph 37% 0.000 in
04:54 41.0 °F 17.0 °F 30.6 in ESE 2 mph 5 mph 37% 0.000 in
04:59 41.0 °F 16.0 °F 30.6 in East 4 mph 5 mph 37% 0.000 in
05:04 41.0 °F 17.0 °F 30.6 in ESE 8 mph 8 mph 38% 0.000 in
05:09 41.0 °F 17.0 °F 30.6 in ESE 2 mph 6 mph 38% 0.000 in
05:14 41.0 °F 16.0 °F 30.6 in SE 7 mph 7 mph 37% 0.000 in
05:19 41.0 °F 16.0 °F 30.6 in SE 5 mph 8 mph 37% 0.000 in
05:24 41.0 °F 16.0 °F 30.6 in ESE 5 mph 8 mph 36% 0.000 in
05:29 41.0 °F 16.0 °F 30.6 in SE 5 mph 7 mph 37% 0.000 in
05:34 41.0 °F 16.0 °F 30.6 in SE 6 mph 9 mph 36% 0.000 in
05:39 41.0 °F 16.0 °F 30.6 in ESE 6 mph 7 mph 37% 0.000 in
05:44 41.0 °F 16.0 °F 30.6 in SE 2 mph 6 mph 37% 0.000 in
05:49 41.0 °F 16.0 °F 30.6 in SE 4 mph 5 mph 36% 0.000 in
05:54 41.0 °F 17.0 °F 30.6 in SSE 5 mph 6 mph 38% 0.000 in
05:59 41.0 °F 16.0 °F 30.6 in SE 5 mph 8 mph 37% 0.000 in
06:04 41.0 °F 16.0 °F 30.6 in East 6 mph 8 mph 36% 0.000 in
06:09 41.0 °F 16.0 °F 30.6 in ESE 4 mph 9 mph 37% 0.000 in
06:14 41.0 °F 17.0 °F 30.6 in SE 6 mph 7 mph 38% 0.000 in
06:19 41.0 °F 17.0 °F 30.6 in SE 9 mph 9 mph 38% 0.000 in
06:24 40.0 °F 17.0 °F 30.6 in ESE 4 mph 7 mph 38% 0.000 in
06:29 40.0 °F 17.0 °F 30.6 in SE 6 mph 11 mph 38% 0.000 in
06:34 40.0 °F 18.0 °F 30.6 in ESE 5 mph 9 mph 40% 0.000 in
06:39 40.0 °F 17.0 °F 30.6 in SE 8 mph 9 mph 38% 0.000 in
06:44 40.0 °F 18.0 °F 30.6 in SSE 2 mph 8 mph 40% 0.000 in
06:49 40.0 °F 18.0 °F 30.6 in East 4 mph 7 mph 40% 0.000 in
06:54 40.0 °F 18.0 °F 30.6 in ESE 4 mph 7 mph 40% 0.000 in
06:59 40.0 °F 18.0 °F 30.6 in Calm   5 mph 40% 0.000 in
07:04 40.0 °F 18.0 °F 30.6 in ESE 4 mph 8 mph 40% 0.000 in
07:09 40.0 °F 17.0 °F 30.6 in SE 4 mph 8 mph 39% 0.000 in
07:14 40.0 °F 17.0 °F 30.6 in East 5 mph 7 mph 39% 0.000 in
07:19 40.0 °F 18.0 °F 30.6 in East 1 mph 7 mph 40% 0.000 in
07:24 40.0 °F 18.0 °F 30.6 in SE 1 mph 4 mph 40% 0.000 in
07:29 40.0 °F 18.0 °F 30.6 in East 4 mph 4 mph 40% 0.000 in
07:34 40.0 °F 18.0 °F 30.6 in SSE 5 mph 7 mph 40% 0.000 in
07:39 40.0 °F 17.0 °F 30.6 in SE 5 mph 6 mph 38% 0.000 in
07:44 40.0 °F 17.0 °F 30.6 in SE 2 mph 6 mph 39% 0.000 in
07:49 40.0 °F 17.0 °F 30.6 in ESE 1 mph 4 mph 39% 0.000 in
07:54 40.0 °F 17.0 °F 30.6 in SSE 3 mph 8 mph 39% 0.000 in
07:59 40.0 °F 17.0 °F 30.6 in SE 6 mph 6 mph 39% 0.000 in
08:04 40.0 °F 18.0 °F 30.6 in Calm   1 mph 40% 0.000 in
08:09 40.0 °F 17.0 °F 30.6 in SSE 5 mph 5 mph 39% 0.000 in
08:14 41.0 °F 18.0 °F 30.6 in SE 2 mph 5 mph 40% 0.000 in
08:19 41.0 °F 18.0 °F 30.6 in SE 2 mph 5 mph 40% 0.000 in
08:24 41.0 °F 17.0 °F 30.6 in SSE 1 mph 7 mph 39% 0.000 in
08:29 41.0 °F 18.0 °F 30.6 in SE 5 mph 7 mph 40% 0.000 in
08:34 41.0 °F 17.0 °F 30.6 in ESE 5 mph 8 mph 38% 0.000 in
08:39 40.0 °F 18.0 °F 30.6 in SE 2 mph 8 mph 40% 0.000 in
08:44 40.0 °F 18.0 °F 30.6 in SE 2 mph 4 mph 40% 0.000 in
08:49 40.0 °F 18.0 °F 30.6 in ESE 2 mph 5 mph 40% 0.000 in
08:54 40.0 °F 18.0 °F 30.6 in East 2 mph 4 mph 40% 0.000 in
08:59 40.0 °F 18.0 °F 30.6 in ESE 1 mph 1 mph 40% 0.000 in
09:04 41.0 °F 18.0 °F 30.6 in East 4 mph 4 mph 40% 0.000 in
09:09 41.0 °F 19.0 °F 30.6 in ESE 5 mph 8 mph 41% 0.000 in
09:14 41.0 °F 19.0 °F 30.6 in ESE 7 mph 8 mph 42% 0.000 in
09:19 40.0 °F 20.0 °F 30.6 in East 5 mph 6 mph 43% 0.000 in
09:24 40.0 °F 21.0 °F 30.6 in ESE 2 mph 7 mph 45% 0.000 in
09:29 40.0 °F 22.0 °F 30.6 in ESE 2 mph 4 mph 48% 0.000 in
09:34 40.0 °F 23.0 °F 30.6 in SE 4 mph 4 mph 51% 0.000 in
09:39 39.0 °F 25.0 °F 30.6 in SE 6 mph 8 mph 57% 0.000 in
09:44 39.0 °F 27.0 °F 30.6 in SSE 5 mph 5 mph 62% 0.000 in
09:49 38.0 °F 27.0 °F 30.6 in SE 5 mph 6 mph 63% 0.000 in
09:54 37.0 °F 27.0 °F 30.6 in SE 6 mph 7 mph 66% 0.000 in
09:59 37.0 °F 26.0 °F 30.6 in ESE 4 mph 5 mph 65% 0.000 in
10:04 37.0 °F 26.0 °F 30.6 in ESE 2 mph 4 mph 64% 0.000 in
10:09 37.0 °F 26.0 °F 30.6 in ESE 4 mph 4 mph 64% 0.000 in
10:14 37.0 °F 25.0 °F 30.6 in SE 4 mph 9 mph 62% 0.000 in
10:19 37.0 °F 26.0 °F 30.6 in ESE 7 mph 9 mph 63% 0.000 in
10:24 37.0 °F 27.0 °F 30.6 in ESE 4 mph 6 mph 66% 0.000 in
10:29 37.0 °F 27.0 °F 30.6 in SE 1 mph 7 mph 66% 0.000 in
10:34 37.0 °F 27.0 °F 30.6 in East 4 mph 9 mph 66% 0.000 in
10:39 37.0 °F 27.0 °F 30.6 in ESE 4 mph 9 mph 67% 0.000 in
10:44 37.0 °F 27.0 °F 30.6 in SE 5 mph 5 mph 66% 0.000 in
10:49 37.0 °F 26.0 °F 30.6 in ESE 2 mph 5 mph 65% 0.000 in
10:54 37.0 °F 26.0 °F 30.6 in SE 9 mph 9 mph 65% 0.000 in
10:59 37.0 °F 26.0 °F 30.6 in SE 5 mph 8 mph 65% 0.000 in
11:04 37.0 °F 26.0 °F 30.6 in ESE 5 mph 6 mph 64% 0.000 in
11:09 37.0 °F 26.0 °F 30.6 in Calm   6 mph 65% 0.000 in
11:14 37.0 °F 26.0 °F 30.6 in SE 2 mph 6 mph 65% 0.000 in
11:19 37.0 °F 26.0 °F 30.6 in SE 5 mph 6 mph 64% 0.000 in
11:24 37.0 °F 26.0 °F 30.5 in East 1 mph 5 mph 64% 0.000 in
11:29 38.0 °F 27.0 °F 30.5 in ESE 2 mph 4 mph 65% 0.000 in
11:34 37.0 °F 28.0 °F 30.5 in ESE 5 mph 5 mph 69% 0.000 in
11:39 37.0 °F 29.0 °F 30.5 in SE 4 mph 6 mph 71% 0.000 in
11:44 37.0 °F 29.0 °F 30.5 in East 3 mph 5 mph 72% 0.000 in
11:49 37.0 °F 29.0 °F 30.5 in SE 5 mph 6 mph 72% 0.000 in
11:54 37.0 °F 29.0 °F 30.5 in SSE 6 mph 7 mph 72% 0.000 in
11:59 37.0 °F 28.0 °F 30.5 in SE 5 mph 7 mph 70% 0.000 in
12:04 37.0 °F 28.0 °F 30.5 in Calm   6 mph 70% 0.000 in
12:09 37.0 °F 28.0 °F 30.5 in NE 4 mph 4 mph 69% 0.000 in
12:14 37.0 °F 28.0 °F 30.5 in Calm   1 mph 69% 0.000 in
12:19 37.0 °F 29.0 °F 30.5 in Calm   1 mph 72% 0.000 in
12:24 37.0 °F 30.0 °F 30.5 in ESE 1 mph 2 mph 74% 0.000 in
12:29 37.0 °F 30.0 °F 30.5 in ESE 1 mph 1 mph 74% 0.000 in
12:34 37.0 °F 30.0 °F 30.5 in ESE 1 mph 2 mph 75% 0.000 in
12:39 37.0 °F 30.0 °F 30.5 in ESE 1 mph 2 mph 76% 0.000 in
12:44 37.0 °F 30.0 °F 30.5 in ESE 2 mph 2 mph 76% 0.000 in
12:49 37.0 °F 31.0 °F 30.5 in South 4 mph 4 mph 78% 0.000 in
12:54 37.0 °F 31.0 °F 30.5 in Calm   4 mph 79% 0.000 in
12:59 37.0 °F 31.0 °F 30.5 in SSE 4 mph 5 mph 80% 0.000 in
13:04 36.0 °F 31.0 °F 30.5 in SSE 2 mph 5 mph 80% 0.000 in
13:09 36.0 °F 31.0 °F 30.5 in Calm   4 mph 80% 0.000 in
13:14 36.0 °F 31.0 °F 30.5 in Calm     81% 0.000 in
13:19 36.0 °F 31.0 °F 30.5 in Calm     82% 0.000 in
13:24 36.0 °F 32.0 °F 30.5 in Calm     85% 0.000 in
13:29 36.0 °F 32.0 °F 30.5 in Calm     85% 0.000 in
13:34 36.0 °F 32.0 °F 30.5 in Calm     86% 0.000 in
13:39 36.0 °F 33.0 °F 30.5 in Calm     87% 0.010 in
13:44 36.0 °F 33.0 °F 30.5 in Calm     88% 0.010 in
13:49 36.0 °F 33.0 °F 30.5 in SSE 1 mph 1 mph 89% 0.010 in
13:54 36.0 °F 33.0 °F 30.5 in Calm   1 mph 90% 0.010 in
13:59 36.0 °F 33.0 °F 30.5 in Calm   1 mph 91% 0.020 in
14:04 36.0 °F 33.0 °F 30.5 in Calm     91% 0.020 in
14:09 35.0 °F 33.0 °F 30.5 in SSE 1 mph 4 mph 91% 0.020 in
14:14 35.0 °F 33.0 °F 30.5 in Calm     92% 0.020 in
14:19 35.0 °F 33.0 °F 30.5 in SSE 1 mph 2 mph 92% 0.020 in
14:24 35.0 °F 33.0 °F 30.5 in Calm     92% 0.020 in
14:29 35.0 °F 33.0 °F 30.4 in Calm     92% 0.020 in
14:34 35.0 °F 33.0 °F 30.5 in SSE 1 mph 2 mph 92% 0.020 in
14:39 35.0 °F 33.0 °F 30.4 in SSE 1 mph 2 mph 91% 0.020 in
14:44 35.0 °F 33.0 °F 30.4 in Calm   1 mph 91% 0.010 in
14:49 35.0 °F 33.0 °F 30.5 in SSE 1 mph 4 mph 92% 0.010 in
14:54 35.0 °F 33.0 °F 30.4 in Calm   1 mph 92% 0.010 in
14:59 36.0 °F 33.0 °F 30.4 in SSE 1 mph 1 mph 92% 0.000 in
15:04 36.0 °F 34.0 °F 30.4 in SSE 1 mph 2 mph 92% 0.000 in
15:09 36.0 °F 34.0 °F 30.4 in Calm     92% 0.000 in
15:14 36.0 °F 34.0 °F 30.4 in Calm   2 mph 92% 0.000 in
15:19 36.0 °F 34.0 °F 30.4 in Calm     92% 0.000 in
15:24 36.0 °F 34.0 °F 30.4 in Calm   1 mph 91% 0.000 in
15:29 36.0 °F 34.0 °F 30.4 in Calm     92% 0.000 in
15:34 37.0 °F 35.0 °F 30.4 in Calm     92% 0.000 in
15:39 37.0 °F 35.0 °F 30.4 in Calm   1 mph 93% 0.000 in
15:44 37.0 °F 35.0 °F 30.4 in Calm     93% 0.000 in
15:49 37.0 °F 35.0 °F 30.4 in Calm     93% 0.000 in
15:54 37.0 °F 35.0 °F 30.4 in Calm     93% 0.000 in
15:59 37.0 °F 35.0 °F 30.4 in Calm     93% 0.000 in
16:04 37.0 °F 35.0 °F 30.4 in Calm     93% 0.000 in
16:09 37.0 °F 35.0 °F 30.4 in Calm     93% 0.000 in
16:14 37.0 °F 35.0 °F 30.4 in Calm     92% 0.000 in
16:19 37.0 °F 36.0 °F 30.4 in Calm   1 mph 93% 0.000 in
16:24 37.0 °F 35.0 °F 30.4 in Calm     92% 0.000 in
16:29 38.0 °F 35.0 °F 30.4 in Calm     91% 0.000 in
16:34 38.0 °F 35.0 °F 30.4 in Calm     92% 0.000 in
16:39 38.0 °F 36.0 °F 30.4 in Calm     92% 0.000 in
16:44 38.0 °F 36.0 °F 30.4 in Calm     92% 0.000 in
16:49 38.0 °F 36.0 °F 30.4 in Calm     92% 0.000 in
16:54 38.0 °F 36.0 °F 30.4 in Calm     92% 0.000 in
16:59 38.0 °F 36.0 °F 30.4 in Calm     92% 0.000 in
17:04 38.0 °F 36.0 °F 30.4 in Calm     92% 0.000 in
17:09 39.0 °F 36.0 °F 30.4 in Calm     92% 0.000 in
17:14 39.0 °F 36.0 °F 30.4 in Calm     92% 0.000 in
17:19 39.0 °F 37.0 °F 30.4 in Calm     92% 0.000 in
17:24 39.0 °F 37.0 °F 30.4 in Calm     92% 0.000 in
17:29 39.0 °F 37.0 °F 30.4 in Calm     92% 0.000 in
17:34 39.0 °F 37.0 °F 30.4 in Calm     92% 0.000 in
17:39 39.0 °F 37.0 °F 30.4 in Calm     92% 0.000 in
17:44 39.0 °F 37.0 °F 30.4 in Calm     92% 0.000 in
17:49 39.0 °F 37.0 °F 30.4 in SSE 1 mph 1 mph 92% 0.000 in
17:54 39.0 °F 37.0 °F 30.4 in Calm     92% 0.000 in
17:59 39.0 °F 37.0 °F 30.4 in Calm   2 mph 92% 0.000 in
18:04 39.0 °F 37.0 °F 30.4 in Calm   2 mph 92% 0.000 in
18:09 40.0 °F 37.0 °F 30.4 in Calm     92% 0.000 in
18:14 40.0 °F 37.0 °F 30.4 in Calm     91% 0.000 in
18:19 40.0 °F 37.0 °F 30.4 in Calm     92% 0.000 in
18:24 40.0 °F 38.0 °F 30.4 in Calm     92% 0.000 in
18:29 40.0 °F 38.0 °F 30.4 in Calm     92% 0.000 in
18:34 40.0 °F 38.0 °F 30.4 in Calm     92% 0.000 in
18:39 40.0 °F 38.0 °F 30.4 in Calm     92% 0.000 in
18:44 40.0 °F 38.0 °F 30.4 in Calm     93% 0.000 in
18:49 40.0 °F 38.0 °F 30.4 in Calm     92% 0.000 in
18:54 40.0 °F 38.0 °F 30.4 in Calm     93% 0.000 in
18:59 40.0 °F 38.0 °F 30.4 in Calm     93% 0.000 in
19:04 40.0 °F 38.0 °F 30.4 in Calm     93% 0.000 in
19:09 40.0 °F 38.0 °F 30.4 in Calm   1 mph 93% 0.000 in
19:14 40.0 °F 39.0 °F 30.4 in Calm     94% 0.000 in
19:19 40.0 °F 39.0 °F 30.4 in Calm     94% 0.000 in
19:24 40.0 °F 39.0 °F 30.4 in Calm     94% 0.000 in
19:29 40.0 °F 39.0 °F 30.4 in Calm     94% 0.000 in
19:34 40.0 °F 39.0 °F 30.4 in Calm     94% 0.000 in
19:39 40.0 °F 39.0 °F 30.4 in Calm     94% 0.000 in
19:43 41.0 °F 39.0 °F 30.4 in Calm     94% 0.000 in
19:49 41.0 °F 39.0 °F 30.4 in SSE 1 mph 1 mph 95% 0.000 in
19:54 41.0 °F 39.0 °F 30.4 in Calm     94% 0.000 in
19:59 41.0 °F 39.0 °F 30.4 in Calm     94% 0.000 in
20:04 41.0 °F 39.0 °F 30.4 in Calm     94% 0.000 in
20:09 41.0 °F 39.0 °F 30.4 in Calm     94% 0.000 in
20:14 41.0 °F 39.0 °F 30.4 in Calm     94% 0.000 in
20:19 41.0 °F 39.0 °F 30.4 in Calm     95% 0.000 in
20:24 41.0 °F 39.0 °F 30.4 in Calm     94% 0.000 in
20:29 41.0 °F 39.0 °F 30.4 in Calm     94% 0.000 in
20:34 41.0 °F 40.0 °F 30.4 in Calm     95% 0.010 in
20:39 41.0 °F 40.0 °F 30.4 in Calm     95% 0.010 in
20:44 41.0 °F 40.0 °F 30.4 in Calm     95% 0.010 in
20:49 41.0 °F 40.0 °F 30.4 in Calm     95% 0.020 in
20:53 41.0 °F 40.0 °F 30.4 in Calm     96% 0.020 in
20:59 41.0 °F 40.0 °F 30.4 in Calm     96% 0.020 in
21:04 41.0 °F 40.0 °F 30.4 in Calm     96% 0.020 in
21:09 41.0 °F 40.0 °F 30.4 in Calm     96% 0.020 in
21:14 41.0 °F 40.0 °F 30.4 in Calm     96% 0.020 in
21:19 41.0 °F 40.0 °F 30.4 in Calm     96% 0.020 in
21:24 41.0 °F 40.0 °F 30.4 in Calm     96% 0.030 in
21:29 41.0 °F 40.0 °F 30.4 in Calm     96% 0.030 in
21:34 41.0 °F 40.0 °F 30.4 in Calm     96% 0.030 in
21:39 41.0 °F 40.0 °F 30.4 in SSE 1 mph 1 mph 96% 0.030 in
21:44 41.0 °F 40.0 °F 30.4 in Calm     96% 0.030 in
21:49 41.0 °F 40.0 °F 30.4 in Calm     96% 0.030 in
21:54 41.0 °F 40.0 °F 30.4 in Calm     96% 0.020 in
21:59 41.0 °F 41.0 °F 30.4 in Calm     97% 0.030 in
22:04 41.0 °F 41.0 °F 30.4 in Calm     97% 0.030 in
22:09 41.0 °F 41.0 °F 30.4 in Calm     97% 0.040 in
22:14 41.0 °F 41.0 °F 30.4 in Calm     97% 0.040 in
22:19 41.0 °F 41.0 °F 30.4 in Calm     97% 0.040 in
22:24 41.0 °F 41.0 °F 30.4 in Calm     97% 0.040 in
22:29 41.0 °F 41.0 °F 30.4 in Calm     97% 0.040 in
22:34 41.0 °F 41.0 °F 30.4 in Calm     97% 0.040 in
22:39 41.0 °F 41.0 °F 30.4 in Calm     97% 0.030 in
22:44 41.0 °F 41.0 °F 30.4 in Calm     97% 0.030 in
22:49 41.0 °F 41.0 °F 30.4 in Calm     97% 0.030 in
22:54 41.0 °F 41.0 °F 30.4 in Calm     97% 0.030 in
22:59 41.0 °F 41.0 °F 30.4 in Calm     97% 0.030 in
23:04 41.0 °F 41.0 °F 30.4 in Calm     97% 0.030 in
23:09 41.0 °F 41.0 °F 30.4 in Calm     97% 0.030 in
23:14 42.0 °F 41.0 °F 30.4 in Calm     97% 0.030 in
23:19 42.0 °F 41.0 °F 30.4 in Calm     97% 0.030 in
23:24 42.0 °F 41.0 °F 30.4 in Calm     97% 0.030 in
23:29 42.0 °F 41.0 °F 30.4 in Calm     97% 0.030 in
23:34 42.0 °F 41.0 °F 30.4 in Calm     97% 0.030 in
23:39 42.0 °F 41.0 °F 30.4 in Calm     97% 0.030 in
23:44 42.0 °F 41.0 °F 30.4 in Calm     97% 0.040 in
23:49 42.0 °F 41.0 °F 30.4 in Calm     97% 0.050 in
23:54 42.0 °F 41.0 °F 30.4 in Calm   1 mph 97% 0.060 in
23:59 42.0 °F 41.0 °F 30.4 in Calm   1 mph 97% 0.070 in
East Ellijay Weather
Compliments of Weather Underground - 2 mb